• In Deutschland
  • Länderverzeichnis
  • Für 7 Tage
  • Wassertemperatur
  • Satellitenkarten
  • Wetterkarte
  • Widgets
  • user-avatar
    Anmelden

    Stündliche Wetter Wien

    Heute, 25 September, Montag

    Zeit Temperatur Niederschläge Wind Luftdruck Luftfeuchtigkeit
    00:00 +11°C° 0 mm 1 m/S 747 mmHg 91%
    01:00 +12°C° 0 mm 1 m/S 747 mmHg 91%
    02:00 +11°C° 0 mm 1 m/S 747 mmHg 91%
    03:00 +11°C° 0 mm 1 m/S 747 mmHg 92%
    04:00 +11°C° 0 mm 1 m/S 747 mmHg 92%
    05:00 +10°C° 0 mm 0 m/S 747 mmHg 91%
    06:00 +11°C° 0 mm 0 m/S 747 mmHg 89%
    07:00 +11°C° 0 mm 0 m/S 747 mmHg 87%
    08:00 +13°C° 0 mm 1 m/S 747 mmHg 82%
    09:00 +15°C° 0 mm 1 m/S 747 mmHg 77%
    10:00 +16°C° 0 mm 1 m/S 747 mmHg 72%
    11:00 +17°C° 0 mm 2 m/S 747 mmHg 70%
    12:00 +17°C° 0 mm 2 m/S 747 mmHg 67%
    13:00 +18°C° 0 mm 2 m/S 747 mmHg 64%
    14:00 +18°C° 0 mm 3 m/S 747 mmHg 64%
    15:00 +18°C° 0 mm 3 m/S 747 mmHg 65%
    16:00 +18°C° 0 mm 3 m/S 747 mmHg 65%
    17:00 +16°C° 0 mm 3 m/S 747 mmHg 70%
    18:00 +15°C° 0 mm 2 m/S 747 mmHg 75%
    19:00 +14°C° 0 mm 2 m/S 748 mmHg 80%
    20:00 +13°C° 0 mm 2 m/S 748 mmHg 82%
    21:00 +13°C° 0 mm 2 m/S 748 mmHg 83%
    22:00 +12°C° 0 mm 2 m/S 748 mmHg 85%
    23:00 +12°C° 0 mm 2 m/S 748 mmHg 86%

    Morgen, 26 September, Dienstag

    Zeit Temperatur Niederschläge Wind Luftdruck Luftfeuchtigkeit
    00:00 +12°C° 0 mm 2 m/S 748 mmHg 86%
    01:00 +12°C° 0 mm 2 m/S 748 mmHg 87%
    02:00 +10°C° 0 mm 2 m/S 748 mmHg 89%
    03:00 +10°C° 0 mm 2 m/S 748 mmHg 90%
    04:00 +10°C° 0 mm 2 m/S 748 mmHg 91%
    05:00 +12°C° 0 mm 2 m/S 748 mmHg 90%
    06:00 +12°C° 0 mm 2 m/S 748 mmHg 89%
    07:00 +12°C° 0 mm 2 m/S 749 mmHg 88%
    08:00 +14°C° 0 mm 2 m/S 749 mmHg 82%
    09:00 +16°C° 0 mm 2 m/S 749 mmHg 76%
    10:00 +17°C° 0 mm 3 m/S 749 mmHg 70%
    11:00 +18°C° 0 mm 3 m/S 749 mmHg 67%
    12:00 +19°C° 0 mm 3 m/S 749 mmHg 64%
    13:00 +20°C° 0 mm 3 m/S 749 mmHg 60%
    14:00 +20°C° 0 mm 3 m/S 748 mmHg 60%
    15:00 +20°C° 0 mm 3 m/S 748 mmHg 61%
    16:00 +20°C° 0 mm 2 m/S 748 mmHg 61%
    17:00 +19°C° 0 mm 2 m/S 748 mmHg 66%
    18:00 +17°C° 0 mm 2 m/S 749 mmHg 71%
    19:00 +16°C° 0 mm 1 m/S 749 mmHg 76%
    20:00 +15°C° 0 mm 1 m/S 749 mmHg 78%
    21:00 +15°C° 0 mm 1 m/S 749 mmHg 80%
    22:00 +14°C° 0 mm 1 m/S 749 mmHg 82%
    23:00 +14°C° 0 mm 1 m/S 749 mmHg 83%

    übermorgen, 27 September, Mittwoch

    Zeit Temperatur Niederschläge Wind Luftdruck Luftfeuchtigkeit
    00:00 +14°C° 0 mm 1 m/S 749 mmHg 84%
    01:00 +14°C° 0 mm 1 m/S 749 mmHg 85%
    02:00 +13°C° 0 mm 1 m/S 749 mmHg 86%
    03:00 +13°C° 0 mm 1 m/S 749 mmHg 87%
    04:00 +13°C° 0 mm 1 m/S 749 mmHg 88%
    05:00 +13°C° 0 mm 1 m/S 749 mmHg 86%
    06:00 +14°C° 0 mm 1 m/S 749 mmHg 85%
    07:00 +14°C° 0 mm 1 m/S 750 mmHg 84%
    08:00 +16°C° 0 mm 2 m/S 750 mmHg 77%
    09:00 +17°C° 0 mm 2 m/S 750 mmHg 71%
    10:00 +19°C° 0 mm 3 m/S 750 mmHg 64%
    11:00 +20°C° 0 mm 3 m/S 750 mmHg 62%
    12:00 +21°C° 0 mm 3 m/S 750 mmHg 59%
    13:00 +22°C° 0 mm 4 m/S 750 mmHg 56%
    14:00 +21°C° 0,1 mm 4 m/S 750 mmHg 59%
    15:00 +21°C° 0,1 mm 4 m/S 750 mmHg 61%
    16:00 +20°C° 0,1 mm 4 m/S 750 mmHg 64%
    17:00 +19°C° 0 mm 3 m/S 750 mmHg 70%
    18:00 +17°C° 0 mm 3 m/S 750 mmHg 77%
    19:00 +16°C° 0 mm 3 m/S 750 mmHg 83%
    20:00 +15°C° 0 mm 2 m/S 750 mmHg 85%
    21:00 +15°C° 0 mm 2 m/S 750 mmHg 87%
    22:00 +14°C° 0 mm 2 m/S 751 mmHg 89%
    23:00 +14°C° 0 mm 2 m/S 751 mmHg 88%

    28 September, Donnerstag

    Zeit Temperatur Niederschläge Wind Luftdruck Luftfeuchtigkeit
    00:00 +14°C° 0 mm 2 m/S 751 mmHg 87%
    01:00 +13°C° 0 mm 2 m/S 751 mmHg 86%
    02:00 +13°C° 0 mm 2 m/S 751 mmHg 86%
    03:00 +13°C° 0 mm 2 m/S 751 mmHg 87%
    04:00 +12°C° 0 mm 2 m/S 751 mmHg 87%
    05:00 +13°C° 0 mm 2 m/S 751 mmHg 86%
    06:00 +13°C° 0 mm 2 m/S 751 mmHg 85%
    07:00 +13°C° 0 mm 2 m/S 751 mmHg 83%
    08:00 +14°C° 0 mm 3 m/S 751 mmHg 76%
    09:00 +16°C° 0 mm 3 m/S 751 mmHg 68%
    10:00 +18°C° 0 mm 4 m/S 751 mmHg 61%
    11:00 +19°C° 0 mm 4 m/S 751 mmHg 58%
    12:00 +19°C° 0 mm 4 m/S 751 mmHg 56%
    13:00 +20°C° 0 mm 4 m/S 751 mmHg 53%
    14:00 +20°C° 0 mm 4 m/S 750 mmHg 54%
    15:00 +20°C° 0 mm 4 m/S 750 mmHg 55%
    16:00 +19°C° 0 mm 4 m/S 750 mmHg 56%
    17:00 +18°C° 0 mm 3 m/S 750 mmHg 61%
    18:00 +16°C° 0 mm 2 m/S 750 mmHg 67%
    19:00 +15°C° 0 mm 2 m/S 751 mmHg 72%
    20:00 +14°C° 0 mm 2 m/S 751 mmHg 73%
    21:00 +14°C° 0 mm 1 m/S 751 mmHg 74%
    22:00 +13°C° 0 mm 1 m/S 751 mmHg 75%
    23:00 +13°C° 0 mm 1 m/S 751 mmHg 76%

    29 September, Freitag

    Zeit Temperatur Niederschläge Wind Luftdruck Luftfeuchtigkeit
    00:00 +13°C° 0 mm 1 m/S 751 mmHg 77%
    01:00 +12°C° 0 mm 2 m/S 750 mmHg 77%
    02:00 +12°C° 0 mm 2 m/S 750 mmHg 78%
    03:00 +12°C° 0 mm 1 m/S 750 mmHg 79%
    04:00 +11°C° 0 mm 1 m/S 750 mmHg 79%
    05:00 +11°C° 0 mm 1 m/S 750 mmHg 79%
    06:00 +12°C° 0 mm 1 m/S 750 mmHg 78%
    07:00 +12°C° 0 mm 1 m/S 750 mmHg 77%
    08:00 +14°C° 0 mm 2 m/S 750 mmHg 70%
    09:00 +16°C° 0 mm 2 m/S 750 mmHg 62%
    10:00 +18°C° 0 mm 2 m/S 750 mmHg 55%
    11:00 +18°C° 0 mm 3 m/S 749 mmHg 52%
    12:00 +19°C° 0 mm 3 m/S 749 mmHg 48%
    13:00 +20°C° 0 mm 3 m/S 749 mmHg 45%
    14:00 +20°C° 0 mm 3 m/S 748 mmHg 46%
    15:00 +20°C° 0 mm 3 m/S 748 mmHg 47%
    16:00 +19°C° 0 mm 3 m/S 748 mmHg 48%
    17:00 +18°C° 0 mm 2 m/S 748 mmHg 53%
    18:00 +16°C° 0 mm 2 m/S 748 mmHg 58%
    19:00 +14°C° 0 mm 2 m/S 748 mmHg 63%
    20:00 +14°C° 0 mm 1 m/S 748 mmHg 66%
    21:00 +13°C° 0 mm 1 m/S 748 mmHg 68%
    22:00 +13°C° 0 mm 1 m/S 749 mmHg 70%
    23:00 +12°C° 0 mm 1 m/S 748 mmHg 73%

    30 September, Samstag

    Zeit Temperatur Niederschläge Wind Luftdruck Luftfeuchtigkeit
    00:00 +12°C° 0 mm 1 m/S 748 mmHg 75%
    01:00 +11°C° 0 mm 1 m/S 748 mmHg 77%
    02:00 +11°C° 0 mm 1 m/S 748 mmHg 79%
    03:00 +10°C° 0 mm 1 m/S 748 mmHg 81%
    04:00 +10°C° 0 mm 1 m/S 748 mmHg 82%
    05:00 +10°C° 0 mm 1 m/S 748 mmHg 82%
    06:00 +10°C° 0 mm 1 m/S 748 mmHg 81%
    07:00 +11°C° 0 mm 1 m/S 748 mmHg 81%
    08:00 +13°C° 0 mm 1 m/S 747 mmHg 73%
    09:00 +15°C° 0 mm 1 m/S 747 mmHg 66%
    10:00 +16°C° 0 mm 1 m/S 747 mmHg 58%
    11:00 +18°C° 0 mm 1 m/S 747 mmHg 55%
    12:00 +19°C° 0 mm 1 m/S 746 mmHg 52%
    13:00 +20°C° 0 mm 1 m/S 746 mmHg 48%
    14:00 +20°C° 0 mm 1 m/S 746 mmHg 49%
    15:00 +19°C° 0 mm 2 m/S 746 mmHg 50%
    16:00 +19°C° 0 mm 2 m/S 745 mmHg 50%
    17:00 +17°C° 0 mm 2 m/S 746 mmHg 56%
    18:00 +15°C° 0 mm 2 m/S 746 mmHg 61%
    19:00 +13°C° 0 mm 2 m/S 746 mmHg 66%
    20:00 +12°C° 0 mm 2 m/S 746 mmHg 67%
    21:00 +12°C° 0 mm 2 m/S 746 mmHg 68%
    22:00 +10°C° 0 mm 2 m/S 746 mmHg 69%
    23:00 +9°C° 0 mm 2 m/S 746 mmHg 71%
    Mehr zeigen